When you browse on this site, cookies collect data to enhance your experience and personalize the content and advertising you see.
Visit our Privacy Policy to learn more. By continuing to use the site, you agree to this use of cookies and data.
  • In Slovakia
  • List of Countries
  • For 7 days
  • Water Temperature
  • Satellite Maps
  • Weather Map
  • Weather Widgets
  • user-avatar
    Login

    Hourly Weather Córdoba

    Today, 21 March, Thursday

    Time Temperature Precipitation Wind Pressure Humidity
    00:00 +13°C° 0 mm 1 mps 729 mmHg 71%
    01:00 +13°C° 0 mm 1 mps 729 mmHg 74%
    02:00 +11°C° 0 mm 0 mps 729 mmHg 77%
    03:00 +12°C° 0 mm 1 mps 728 mmHg 78%
    04:00 +11°C° 0 mm 1 mps 728 mmHg 79%
    05:00 +11°C° 0 mm 1 mps 728 mmHg 80%
    06:00 +12°C° 0 mm 1 mps 728 mmHg 75%
    07:00 +14°C° 0 mm 1 mps 728 mmHg 69%
    08:00 +15°C° 0 mm 1 mps 728 mmHg 64%
    09:00 +17°C° 0 mm 2 mps 728 mmHg 58%
    10:00 +19°C° 0 mm 3 mps 728 mmHg 53%
    11:00 +20°C° 0 mm 4 mps 728 mmHg 47%
    12:00 +21°C° 0 mm 4 mps 727 mmHg 45%
    13:00 +22°C° 0 mm 5 mps 727 mmHg 43%
    14:00 +23°C° 0 mm 5 mps 726 mmHg 41%
    15:00 +23°C° 0 mm 5 mps 725 mmHg 43%
    16:00 +23°C° 0 mm 5 mps 725 mmHg 44%
    17:00 +22°C° 0 mm 5 mps 724 mmHg 45%
    18:00 +20°C° 0 mm 4 mps 724 mmHg 51%
    19:00 +18°C° 0 mm 3 mps 724 mmHg 56%
    20:00 +16°C° 0 mm 3 mps 725 mmHg 62%
    21:00 +16°C° 0 mm 2 mps 725 mmHg 63%
    22:00 +15°C° 0 mm 2 mps 725 mmHg 65%
    23:00 +14°C° 0 mm 2 mps 725 mmHg 66%

    Tomorrow, 22 March, Friday

    Time Temperature Precipitation Wind Pressure Humidity
    00:00 +14°C° 0 mm 2 mps 725 mmHg 68%
    01:00 +14°C° 0 mm 1 mps 725 mmHg 70%
    02:00 +14°C° 0 mm 1 mps 725 mmHg 71%
    03:00 +13°C° 0 mm 1 mps 725 mmHg 72%
    04:00 +13°C° 0 mm 2 mps 725 mmHg 73%
    05:00 +13°C° 0 mm 2 mps 725 mmHg 74%
    06:00 +14°C° 0 mm 2 mps 726 mmHg 68%
    07:00 +16°C° 0 mm 2 mps 726 mmHg 63%
    08:00 +17°C° 0 mm 2 mps 727 mmHg 58%
    09:00 +20°C° 0 mm 3 mps 727 mmHg 53%
    10:00 +22°C° 0 mm 3 mps 727 mmHg 47%
    11:00 +25°C° 0 mm 3 mps 727 mmHg 42%
    12:00 +26°C° 0 mm 3 mps 727 mmHg 40%
    13:00 +27°C° 0 mm 3 mps 726 mmHg 39%
    14:00 +28°C° 0 mm 3 mps 725 mmHg 37%
    15:00 +28°C° 0 mm 4 mps 725 mmHg 39%
    16:00 +28°C° 0 mm 4 mps 725 mmHg 40%
    17:00 +27°C° 0 mm 4 mps 724 mmHg 42%
    18:00 +25°C° 0 mm 4 mps 724 mmHg 47%
    19:00 +22°C° 0 mm 3 mps 724 mmHg 53%
    20:00 +19°C° 0 mm 2 mps 725 mmHg 58%
    21:00 +19°C° 0 mm 2 mps 725 mmHg 60%
    22:00 +18°C° 0 mm 2 mps 725 mmHg 63%
    23:00 +17°C° 0 mm 2 mps 725 mmHg 65%

    Day after tomorrow, 23 March, Saturday

    Time Temperature Precipitation Wind Pressure Humidity
    00:00 +17°C° 0 mm 2 mps 725 mmHg 66%
    01:00 +17°C° 0 mm 2 mps 725 mmHg 67%
    02:00 +17°C° 0 mm 2 mps 725 mmHg 68%
    03:00 +16°C° 0 mm 2 mps 724 mmHg 69%
    04:00 +16°C° 0 mm 2 mps 724 mmHg 70%
    05:00 +16°C° 0 mm 2 mps 724 mmHg 71%
    06:00 +17°C° 0 mm 2 mps 724 mmHg 67%
    07:00 +19°C° 0 mm 3 mps 725 mmHg 63%
    08:00 +20°C° 0 mm 3 mps 725 mmHg 59%
    09:00 +24°C° 0 mm 3 mps 725 mmHg 53%
    10:00 +26°C° 0 mm 4 mps 725 mmHg 46%
    11:00 +29°C° 0 mm 5 mps 725 mmHg 40%
    12:00 +30°C° 0 mm 4 mps 725 mmHg 37%
    13:00 +32°C° 0 mm 4 mps 724 mmHg 35%
    14:00 +33°C° 0 mm 4 mps 724 mmHg 33%
    15:00 +32°C° 0 mm 4 mps 723 mmHg 35%
    16:00 +32°C° 0 mm 4 mps 723 mmHg 36%
    17:00 +30°C° 0 mm 4 mps 722 mmHg 37%
    18:00 +28°C° 0 mm 4 mps 723 mmHg 42%
    19:00 +25°C° 0 mm 3 mps 723 mmHg 47%
    20:00 +22°C° 0 mm 3 mps 723 mmHg 51%
    21:00 +21°C° 0 mm 2 mps 723 mmHg 53%
    22:00 +21°C° 0 mm 2 mps 724 mmHg 55%
    23:00 +20°C° 0 mm 2 mps 724 mmHg 57%

    24 March, Sunday

    Time Temperature Precipitation Wind Pressure Humidity
    00:00 +20°C° 0 mm 2 mps 724 mmHg 58%
    01:00 +20°C° 0 mm 2 mps 724 mmHg 58%
    02:00 +20°C° 0 mm 2 mps 724 mmHg 58%
    03:00 +20°C° 0 mm 2 mps 724 mmHg 58%
    04:00 +20°C° 0 mm 2 mps 724 mmHg 58%
    05:00 +20°C° 0 mm 2 mps 724 mmHg 58%
    06:00 +20°C° 0 mm 3 mps 725 mmHg 52%
    07:00 +21°C° 0 mm 4 mps 726 mmHg 47%
    08:00 +21°C° 0 mm 5 mps 726 mmHg 42%
    09:00 +22°C° 0 mm 5 mps 726 mmHg 37%
    10:00 +25°C° 0 mm 5 mps 726 mmHg 33%
    11:00 +26°C° 0 mm 4 mps 726 mmHg 28%
    12:00 +27°C° 0 mm 4 mps 726 mmHg 28%
    13:00 +28°C° 0 mm 4 mps 725 mmHg 28%
    14:00 +28°C° 0 mm 4 mps 724 mmHg 27%
    15:00 +28°C° 0 mm 4 mps 724 mmHg 29%
    16:00 +27°C° 0 mm 3 mps 723 mmHg 31%
    17:00 +27°C° 0 mm 3 mps 723 mmHg 33%
    18:00 +25°C° 0 mm 2 mps 723 mmHg 38%
    19:00 +22°C° 0 mm 1 mps 723 mmHg 43%
    20:00 +20°C° 0 mm 1 mps 723 mmHg 48%
    21:00 +20°C° 0 mm 1 mps 724 mmHg 48%
    22:00 +19°C° 0 mm 1 mps 724 mmHg 49%
    23:00 +19°C° 0 mm 1 mps 724 mmHg 50%

    25 March, Monday

    Time Temperature Precipitation Wind Pressure Humidity
    00:00 +19°C° 0 mm 1 mps 724 mmHg 51%
    01:00 +18°C° 0 mm 1 mps 724 mmHg 51%
    02:00 +16°C° 0 mm 0 mps 724 mmHg 52%
    03:00 +16°C° 0 mm 0 mps 724 mmHg 50%
    04:00 +19°C° 0 mm 1 mps 724 mmHg 47%
    05:00 +19°C° 0 mm 1 mps 724 mmHg 44%
    06:00 +19°C° 0 mm 1 mps 724 mmHg 45%
    07:00 +18°C° 0 mm 2 mps 725 mmHg 46%
    08:00 +18°C° 0 mm 2 mps 725 mmHg 46%
    09:00 +19°C° 0.1 mm 2 mps 726 mmHg 49%
    10:00 +19°C° 0.1 mm 3 mps 726 mmHg 51%
    11:00 +19°C° 0.1 mm 3 mps 726 mmHg 53%
    12:00 +21°C° 0 mm 3 mps 726 mmHg 50%
    13:00 +22°C° 0 mm 4 mps 726 mmHg 47%
    14:00 +23°C° 0 mm 4 mps 725 mmHg 44%
    15:00 +23°C° 0 mm 4 mps 725 mmHg 47%
    16:00 +22°C° 0 mm 3 mps 725 mmHg 50%
    17:00 +22°C° 0 mm 3 mps 725 mmHg 53%
    18:00 +20°C° 0 mm 3 mps 725 mmHg 59%
    19:00 +18°C° 0 mm 2 mps 726 mmHg 65%
    20:00 +17°C° 0 mm 2 mps 726 mmHg 71%
    21:00 +17°C° 0 mm 2 mps 726 mmHg 70%
    22:00 +17°C° 0 mm 2 mps 727 mmHg 69%
    23:00 +17°C° 0 mm 2 mps 727 mmHg 68%

    26 March, Tuesday

    Time Temperature Precipitation Wind Pressure Humidity
    00:00 +18°C° 0 mm 1 mps 727 mmHg 67%
    01:00 +18°C° 0 mm 1 mps 727 mmHg 67%
    02:00 +16°C° 0 mm 1 mps 727 mmHg 67%
    03:00 +16°C° 0 mm 1 mps 728 mmHg 64%
    04:00 +16°C° 0 mm 1 mps 728 mmHg 62%
    05:00 +16°C° 0 mm 1 mps 728 mmHg 60%
    06:00 +18°C° 0 mm 1 mps 729 mmHg 59%
    07:00 +18°C° 0 mm 1 mps 729 mmHg 57%
    08:00 +18°C° 0 mm 1 mps 730 mmHg 56%
    09:00 +18°C° 0 mm 1 mps 730 mmHg 56%
    10:00 +18°C° 0 mm 1 mps 730 mmHg 55%
    11:00 +18°C° 0 mm 1 mps 730 mmHg 55%
    12:00 +18°C° 0 mm 1 mps 730 mmHg 55%
    13:00 +18°C° 0 mm 1 mps 729 mmHg 55%
    14:00 +18°C° 0 mm 1 mps 729 mmHg 55%
    15:00 +19°C° 0 mm 1 mps 729 mmHg 53%
    16:00 +19°C° 0 mm 1 mps 729 mmHg 51%
    17:00 +19°C° 0 mm 1 mps 728 mmHg 49%
    18:00 +18°C° 0 mm 2 mps 729 mmHg 49%
    19:00 +18°C° 0 mm 2 mps 729 mmHg 49%
    20:00 +17°C° 0 mm 2 mps 729 mmHg 49%
    21:00 +17°C° 0 mm 2 mps 730 mmHg 51%
    22:00 +18°C° 0 mm 2 mps 730 mmHg 53%
    23:00 +18°C° 0 mm 2 mps 730 mmHg 55%
    Show more